Location: Jaite
(41.2884°N, 81.5737°W)
Time: 07:02:29
(UTC+00:00)

BlueWalker 3 - Pass Details

Date: 12 October 2024
Orbit: 470 x 482 km, 53.2° (Epoch: 03 November)

Event Time Altitude Azimuth Distance (km) Brightness Sun altitude
Exits shadow 09:42:23 16° 353° (N) 1,313 4.0 -21.9°
Drops below altitude 10° 09:44:24 10° 26° (NNE) 1,635 5.0 -21.6°
Sets 09:47:13 0° 48° (NE) 2,515 6.4 -21.1°
